www.pogodaiklimat.ru

Погода и климат >> Архив погоды >> Россия >> Свердловская область >> Таборы


ПОГОДА в Таборах

  • Прогноз погоды в Таборах
  • Монитор погоды в Таборах
  • Климат города

АРХИВ ПОГОДЫ в Таборах

Время (UTC), дата Ветер
(напр.,м/с)
 
Видим.   Явления Облачность Т
(С)
Тd
(С)
f
(%)
Тe
(С)
Тes
(С)
Комфортность P
(гПа)
Po
(гПа)
Тmin
(С)
Tmax
(С)
R
(мм)
R24
(мм)
S
(см)
18 20.06 Ю 2 50 км гроза без осадков 10/4 300 м
[Cb calv Ac As Ci sp]
+14.4 +13.0 91 +14 +14 993.9 986.7
21 20.06 В 2 50 км {гроза} 10/3 300 м
[Cb calv Ac lent Ci fib]
+13.5 +12.5 94 +13 +13 994.4 987.2
00 21.06 ЮВ 1 50 км {гроза} 8/0
[Ac lent Ci fib]
+11.7 +10.8 94 +11 +12 994.3 987.0
03 21.06 ЮВ 1 50 км 8/0
[Ac trans Ci fib]
+17.5 +12.8 74 +19 +24 994.1 986.9 +11.4
06 21.06 Ю 3 50 км 4/1 600 м
[Cu hum Ac trans Ci fib]
+22.1 +14.1 60 +25 +33 комфорт 994.0 987.0
09 21.06 З 3 50 км 9/6 1000 м
[Cu med, cong Ac cuf Ci fib]
+23.0 +12.2 51 +26 +29 жарко 994.0 987.0
12 21.06 С 1 50 км гроза без осадков 9/5 600 м
[Cb calv Ac trans Ci fib]
+25.0 +10.8 41 +26 +28 жарко 994.0 987.0
15 21.06 З 4
{12}
50 км гроза без осадков 10/8 600 м
[Cb calv Ac trans Cs]
+17.9 +13.6 76 +18 +18 996.6 989.5 +25.8
18 21.06 штиль 0 50 км {гроза} 8/3 600 м
[Sc Ac As Ci ing]
+15.5 +13.9 90 +15 +15 997.4 990.2
21 21.06 ЮЗ 1 9000 м дымка 4/0
[Ac trans Ci fib]
+12.8 +11.6 92 +13 +13 998.4 991.1
00 22.06 З 1 50 км 3/0
[Ci fib]
+12.8 +11.9 94 +13 +13 999.8 992.5
03 22.06 СЗ 1 50 км 3/0
[Ci fib]
+18.5 +13.8 74 +20 +26 1000.9 993.7 +11.2
06 22.06 З 4 50 км 8/4 600 м
[Cu hum Ci fib]
+22.7 +12.1 51 +25 +30 комфорт 1001.7 994.6
09 22.06 ЮЗ 4 50 км 8/3 600 м
[Cu hum Ci fib]
+24.3 +10.6 42 +25 +31 комфорт 1001.9 994.9
12 22.06 Ю 2 50 км 8/0
[Ci fib]
+24.9 +10.4 40 +26 +32 жарко 1001.8 994.8
15 22.06 Ю 2 50 км 8/0
[Ac trans Ci fib]
+22.8 +11.3 48 +25 +26 комфорт 1002.7 995.6 +25.4
18 22.06 Ю 2 50 км 8/0
[Ci fib]
+18.4 +12.6 69 +19 +19 1002.8 995.6
21 22.06 Ю 3 50 км 9/0
[Ci fib]
+18.3 +12.5 69 +19 +19 1002.8 995.6
00 23.06 Ю 3 50 км 8/0
[Ac trans Ci fib]
+17.9 +12.1 69 +18 +18 1003.0 995.8
03 23.06 Ю 2 50 км 8/0
[Ci fib]
+21.6 +13.8 61 +24 +29 комфорт 1002.7 995.6 +16.9
06 23.06 З 4 50 км 9/4 300 м
[Cb cap Ac As Ci fib]
+23.4 +14.0 56 +27 +30 душно 1002.7 995.6
09 23.06 З 2 50 км в посл. час ливневой дождь 9/3 300 м
[Cb cap Ac trans Ci fib]
+24.2 +15.3 58 +27 +33 жарко 1002.5 995.5
12 23.06 штиль 0 50 км в посл. час гроза {ливн. осадки} 10/4 300 м
[Cb cap Ac As Ci fib]
+19.7 +14.9 74 +21 +24 комфорт 1003.6 996.4
15 23.06 СЗ 2 50 км 9/3 300 м
[Cb cap Ac trans Ci fib]
+18.3 +15.9 86 +19 +20 1003.3 996.1 +25.4 4
18 23.06 ЮВ 1 50 км гроза без осадков {ливн. осадки} 9/4 300 м
[Cb calv Ac As Ci fib]
+16.9 +15.6 92 +18 +18 1004.8 997.5
21 23.06 Ю 1 50 км {гроза} 10/6 300 м
[Cb cap Ac As Ci fib]
+14.9 +13.7 93 +15 +15 1004.5 997.3
00 24.06 ЮЗ 1 2000 м дымка {гроза} 10/0
[Ac trans Cs]
+14.4 +13.5 94 +15 +15 1004.6 997.3
03 24.06 СЗ 2 50 км 6/0
[Ac trans Ci fib]
+16.6 +12.3 76 +17 +21 1004.9 997.7 +13.8 2
06 24.06 СЗ 3 50 км 4/3 1000 м
[Cu med, cong Ci fib]
+20.7 +9.5 49 +23 +30 комфорт 1004.7 997.6
09 24.06 З 4 50 км 6/5 1000 м
[Cu med, cong Ci fib]
+21.1 +7.3 41 +22 +26 комфорт 1004.0 996.9
12 24.06 ЮЗ 3 50 км 8/5 1000 м
[Cu med, cong Ac cuf Ci fib]
+21.9 +6.4 37 +23 +25 комфорт 1003.3 996.2
15 24.06 З 4 50 км 8/4 600 м
[Sc diur, vesp Ac trans Ci fib]
+20.8 +8.4 45 +22 +23 комфорт 1003.6 996.5 +23.0
18 24.06 СЗ 2
{10}
50 км 9/8 600 м
[Cb cap Ac trans Ci fib]
+15.9 +8.3 61 +16 +16 1004.1 996.9
21 24.06 З 1 50 км 6/1 600 м
[Cb calv Ac trans Ci ing]
+10.4 +8.4 87 +10 +10 1004.8 997.4
00 25.06 ЮЗ 1 50 км 3/0
[Ac trans Ci fib]
+10.6 +9.1 90 +10 +11 1005.2 997.8
03 25.06 штиль 0 50 км 6/0
[Ac trans Ci fib]
+16.6 +11.5 72 +17 +22 1005.1 997.9 +9.8
06 25.06 Ю 2 50 км 8/0
[Ci fib]
+21.2 +9.2 46 +22 +34 комфорт 1004.2 997.1
09 25.06 ЮВ 3 50 км 8/3 600 м
[Cu hum Ci fib]
+22.6 +10.1 45 +24 +31 комфорт 1003.3 996.2
12 25.06 ЮВ 4 50 км 9/0
[Ac trans Ci fib]
+21.9 +12.2 54 +24 +27 комфорт 1001.6 994.5
15 25.06 ЮВ 3 50 км {ливн. осадки} 10/3 300 м
[Cb cap Ac As Ci fib]
+18.3 +11.1 63 +19 +19 1000.2 993.1 +23.3 0.0
18 25.06 В 4 50 км {ливн. осадки} 10/0
[Ac und]
+17.0 +13.5 80 +17 +17 998.3 991.2
21 25.06 ЮВ 4 50 км {ливн. осадки} 9/0
[Ac trans]
+17.4 +12.5 73 +17 +17 996.5 989.3
00 26.06 Ю 4 50 км {ливн. осадки} 9/3 300 м
[Cb cap Ac trans Ci fib]
+15.3 +12.9 86 +14 +14 996.7 989.5
03 26.06 Ю 5 50 км 8/4 300 м
[Cb cap Ci fib]
+16.1 +11.2 73 +15 +17 996.7 989.5 +14.6 1
06 26.06 Ю 3 11 км слабый ливневой дождь 10/10 500 м
[Cb cap]
+15.0 +11.7 81 +14 +14 997.5 990.3
09 26.06 ЮЗ 6 50 км {ливн. осадки} 10/10 540 м
[Cb cap]
+14.3 +10.1 76 +12 +12 999.6 992.3
12 26.06 ЮЗ 6-11
{12}
15 км слабый ливневой дождь 10/6 300 м
[Cb cap Ac und]
+13.3 +9.8 79 +11 +11 1001.1 993.8
15 26.06 ЮЗ 5
{13}
50 км {ливн. осадки} 10/10 480 м
[Cb cap]
+13.0 +9.7 80 +11 +11 1001.5 994.2 +16.5 0.8
18 26.06 З 6 50 км в посл. час ливневой дождь 10/10 400 м
[Cb cap]
+12.4 +10.2 86 +10 +10 1001.9 994.6
21 26.06 ЮЗ 5
{10}
14 км слабый ливневой дождь 10/10 400 м
[Cb cap]
+11.5 +10.1 91 +9 +9 1002.0 994.7
00 27.06 З 5 50 км {ливн. осадки} 10/3 300 м
[Cb cap Ac und]
+11.7 +10.0 89 +9 +9 1002.8 995.4
03 27.06 З 5
{10}
50 км 4/3 600 м
[Cu hum Ac lent]
+15.1 +10.5 74 +14 +16 1003.9 996.7 +11.5 0.9
06 27.06 З 5
{10}
50 км 8/6 870 м
[Cu med, cong Ci fib]
+19.2 +11.2 60 +20 +22 1004.7 997.5
09 27.06 З 5
{11}
50 км 6/3 1000 м
[Cu hum Ci fib]
+21.7 +8.7 43 +23 +28 комфорт 1004.4 997.3
12 27.06 ЮЗ 6
{11}
50 км 8/5 1000 м
[Cu med, cong Ac cuf Ci fib]
+22.8 +11.1 48 +25 +26 комфорт 1003.7 996.6
15 27.06 ЮЗ 5
{11}
50 км 6/3 600 м
[Sc diur, vesp Ac cast Ci sp]
+21.2 +13.4 61 +24 +24 комфорт 1002.9 995.8 +23.2

 

Местоположение метеостанции Таборы (Свердловская область, Россия): широта 58.53 долгота 64.50 высота над уровнем моря 63 м.

В архиве по умолчанию представлена погода в Таборах за последнюю неделю. Архивные данные за месяц целиком и за предыдущие месяцы, начиная с января 2011 года, Вы можете получить, выбрав интересующий диапазон дат из раскрывающегося списка и нажав кнопку "Ввод!".

Внимание! Время в таблицах - всемирное. Для получения местного времени необходимо прибавить поправку, которая в Таборах равна 5 ч.

Смотрите также архив погоды в соседних городах и на ближайших метеорологических станциях:

Погода в Тавде (Свердловская область, Россия) (68 км)
Погода в Туринске (Свердловская область, Россия) (72 км)
Погода в Куминской (Ханты-Мансийский АО, Россия) (94 км)
Погода в Ирбите (Свердловская область, Россия) (135 км)
Погода в Леушах (Ханты-Мансийский АО, Россия) (141 км)
Погода в Гари (Свердловская область, Россия) (160 км)
Погода в Тугулыме (Свердловская область, Россия) (163 км)
Погода в Тюмени (Тюменская область, Россия) (166 км)
Погода в Алапаевске (Свердловская область, Россия) (180 км)
Погода в Ярково (Тюменская область, Россия) (196 км)

Пояснения к столбцам:

Ветер - указаны скорость ветра в м/с - средняя за 10 мин, порывы в срок и между сроками (в фигурных скобках) и направление, откуда дует ветер: С - северный, СВ - северо-восточный, В - восточный, ЮВ - юго-восточный, Ю - южный, ЮЗ - юго-западный, З - западный, СЗ - северо-западный.
Видимость - горизонтальная дальность видимости в метрах или километрах. При видимости от 1 до 10 км при отсутствии осадков обычно наблюдается дымка, при ухудшении видимости до 1 км и менее - туман. В сухую погоду видимость может ухудшаться дымом, пылью или мглою.
Явления - указаны атмосферные явления, наблюдавшиеся в срок или в последний час перед сроком; фигурными скобками обозначены явления, наблюдавшиеся между сроками (за 1-3 часа до срока); квадратными скобками обозначены град или гололедные отложения с указанием их диаметра в мм.
Облачность - указаны через наклонную черту общая и нижняя облачность в баллах и высота нижней границы облаков в метрах; квадратными скобками обозначены формы облаков: Ci - перистые, Cs - перисто-слоистые, Cc - перисто-кучевые, Ac - высококучевые, As - высокослоистые, Sc - слоисто-кучевые, Ns - слоисто-дождевые, Cu - кучевые, Cb - кучево-дождевые. Подробнее классификацию облаков см. в Атласе облаков (PDF).
T - Температура воздуха - температура, измеренная на высоте 2 м над землей.
Td - Температура точки росы - температура, при понижении до которой содержащийся в воздухе водяной пар достигнет насыщения.
f - Относительная влажность воздуха - влажноcть воздуха, измеренная на высоте 2 м над землей.
Te - Эффективная температура - температура, которую ощущает одетый по сезону человек в тени. Характеристика душности погоды. При расчете учитывается влияние влажности воздуха и скорости ветра на теплоощущения человека.
Tes - Эффективная температура на солнце - температура, которую ощущает человек, с поправкой на солнечный нагрев. Характеристика знойности погоды. Зависит от высоты солнца над горизонтом, облачности и скорости ветра. Ночью, в пасмурную погоду, а также при ветре 12 м/с и более поправка равна нулю.
P - Атмосферное давление - приведенное к уровню моря атмосферное давление.
Po - Атмосферное давление - измеренное на уровне метеостанции атмосферное давление.
Tmin - Минимальная температура - минимум температуры воздуха на высоте 2 м над землей.
Tmax - Максимальная температура - максимум температуры воздуха на высоте 2 м над землей.
R - Количество осадков - Количество выпавших осадков за период времени, мм. При наведении курсора мыши на число - период времени, за который выпало указанное количество осадков.
R24 - Количество осадков - Количество выпавших осадков за 24 часа, мм.
S - Снежный покров - Высота снежного покрова, см. При наведении курсора мыши на число - состояние снежного покрова и степень покрытия местности в баллах.